Regional Weather Roundup
Issued by NWS Memphis, TN

Home | Current Version | Previous Version | Text Only | Print | Product List | Glossary On
Versions: 1 2 3 4 5 6 7 8 9 10 11 12 13 14 15 16 17 18 19 20 21 22 23 24 25 26 27 28 29 30 31 32 33 34 35 36 37 38 39 40 41 42 43 44 45 46 47 48 49 50
000
ASUS44 KMEG 231710
RWRMEG
MEMPHIS CWA HOURLY WEATHER ROUNDUP
NATIONAL WEATHER SERVICE MEMPHIS TN
1100 AM CST SUN NOV 23 2014

...WEST TENNESSEE...

CITY           SKY/WX    TMP DP  RH WIND       PRES   REMARKS
MEMPHIS INTL   LGT RAIN  59  56  89 SE10      29.57F FOG
NWS MEMPHIS      N/A     58 N/A N/A MISG        N/A
JACKSON        LGT RAIN  58  55  90 SE7       29.64F
LEXINGTON      CLOUDY    55  54  94 VRB6      29.66F
SAVANNAH       CLOUDY    55  55 100 SE10      29.66F
DYERSBURG      CLOUDY    57  46  67 SE7       29.63F
UNION CITY     CLOUDY    55  54  94 SE6       29.63F
PARIS          CLOUDY    55  52  88 SE9       29.67F
HUNTINGDON     CLOUDY    55  53  93 SE9       29.66F


...EASTERN ARKANSAS...

CITY           SKY/WX    TMP DP  RH WIND       PRES   REMARKS
JONESBORO      LGT RAIN  58  57  97 SE10      29.56F
WEST MEMPHIS   LGT RAIN  59  59 100 SE15      29.56F FOG
BATESVILLE     CLOUDY    57  57 100 E6        29.52F
NEWPORT        LGT RAIN  59  58  96 SE17      29.54F
WALNUT RIDGE   CLOUDY    57  54  88 SE14      29.54F
BLYTHEVILLE    LGT RAIN  65  57  75 SE10      29.60F
SEARCY         LGT RAIN  59  58  96 S9        29.53F
STUTTGART      CLOUDY    59  55  88 SE13G18   29.53F
PINE BLUFF     RAIN      59  58  96 E7        29.50F FOG
MONTICELLO     HVY RAIN  61  59  93 E5        29.48F FOG


...NORTH MISSISSIPPI...

CITY           SKY/WX    TMP DP  RH WIND       PRES   REMARKS
TUPELO         LGT RAIN  60  58  92 MISG      29.63F
OXFORD         CLOUDY    57  55  94 SE12      29.60F FOG
OLIVE BRANCH   RAIN      57  57 100 SE12      29.59F FOG
TUNICA         RAIN      59  55  88 E10       29.55F
CLARKSDALE     CLOUDY    59  59 100 E13       29.52F
CORINTH        LGT RAIN  59  57  94 SE12      29.63F
GRENADA        LGT RAIN  57  57 100 E16       29.54F
GREENWOOD      LGT RAIN  62  60  93 SE15      29.52F
COLUMBUS       LGT RAIN  61  61 100 E10       29.58F
STARKVILLE     CLOUDY    61  59  94 E9        29.57F
GOLDEN TRIANGL CLOUDY    61  61 100 E14       29.60F FOG


...SOUTHEAST MISSOURI...

CITY           SKY/WX    TMP DP  RH WIND       PRES   REMARKS
WEST PLAINS    LGT RAIN  54  52  93 SE8       29.53F FOG
POPLAR BLUFF   LGT RAIN  56  54  93 SE10      29.58F FOG
CAPE GIRARDEAU LGT RAIN  55  54  96 SE12      29.62F FOG


...NORTHWEST ALABAMA...

CITY           SKY/WX    TMP DP  RH WIND       PRES   REMARKS
MUSCLE SHOALS  LGT RAIN  57  53  86 SE13      29.71F


...MIDDLE TENNESSEE...

CITY           SKY/WX    TMP DP  RH WIND       PRES   REMARKS
NASHVILLE      LGT RAIN  58  55  90 SE16G24   29.75F
CLARKSVILLE    CLOUDY    58  52  80 SE18G28   29.71F


...WESTERN KENTUCKY...

CITY           SKY/WX    TMP DP  RH WIND       PRES   REMARKS
PADUCAH        CLOUDY    58  50  75 SE9       29.65F
FORT CAMPBELL  CLOUDY    57  57 100 SE10G22   29.69F


...CENTRAL ARKANSAS...

CITY           SKY/WX    TMP DP  RH WIND       PRES   REMARKS
LITTLE ROCK    LGT RAIN  60  57  89 SE8       29.52F FOG


SKY/WX REPORTED AS FAIR MEANS FEW OR NO CLOUDS BELOW
12 THOUSAND FEET.



USA.gov is the U.S. government's official web portal to all federal, state and local government web resources and services.